Tracking 19245 objects as of 17-Aug-2018
HD Live streaming from Space Station
objects crossing your sky now

PROBA 1

Track PROBA 1 now!
10-day predictions
PROBA 1 is classified as:


NORAD ID: 26958
Int'l Code: 2001-049B
Perigee: 538.0 km
Apogee: 639.4 km
Inclination: 97.6 °
Period: 96.3 minutes
Semi major axis: 6959 km
RCS: Unknown
Launch date: October 22, 2001
Source: European Space Agency (ESA)
Launch site: SRIHARIKOTA (SRI)

First a technology demonstration, then extended for one year for remote sensing; looks like a washing machine.
aabbcc
Your satellite tracking list
Your tracking list is empty




NASA's NSSDC Master Catalog

Two Line Element Set (TLE):
1 26958U 01049B   18229.04371487  .00000439  00000-0  43181-4 0  9997
2 26958  97.6214 187.8017 0072805 343.3669  16.5165 14.95265792915154
Source of the keplerian elements: AFSPC